Погода в Старом Аллагулово

Россия / Республика Мордовия     54°12′55″N   43°30′01″E
темп.,
°C
ветер,
м/с
пор.,
м/с
влажн.,
%
обл.,
%
осадки,
мм/ч
давл.,
гПа
погр.,
м
19 апреля, пн
пн1900:00+7св51177100 0.0 1021256
03:00+5всв61283100 0.0 1021339
06:00+5всв6117999 0.0 1021402
09:00+7в81262100 0.0 1021709
12:00+10в91155100 0.0 10211291
15:00+10в81051100 0.0 10211475
18:00+8в71056100 0.0 10221220
21:00+6в81464100 0.0 1023737
20 апреля, вт
вт2000:00+5в7136892 0.0 1023662
03:00+4в71370100 0.0 1023626
06:00+3в81371100 0.0 1022773
09:00+4вюв81481100 0.2 1023828
12:00+5вюв81571100 0.2 1022886
15:00+5вюв91671100 0.5 1020880
18:00+6вюв101872100 0.1 10181021
21:00+5вюв112179100 1.8 1015913
21 апреля, ср
ср2100:00+5вюв132483100 4.7 10111025
03:00+6юв122286100 5.9 10091027
06:00+6юв122290100 0.8 1007974
09:00+6юв122091100 1.3 1007994
12:00+8ююв101792100 2.0 10081303
15:00+8ююз91276100 3.2 10121149
18:00+7ююз71182100 0.0 10151108
21:00+6юз5118398 0.1 1017583
22 апреля, чт
чт2200:00+6ю358387 0.0 1018108
03:00+4ююв499290 0.0 1018177
06:00+5ю4993100 0.2 1019256
09:00+10ююз467515 0.4 1020603
12:00+13юз56505 0.0 10201592
15:00+15ююз464537 0.0 10201935
18:00+13юз235692 0.0 102161
21:00+12ю3358100 0.0 102243
23 апреля, пт
пт2300:00+10ю3468100 0.0 102285
03:00+10ю2268100 0.0 102236
06:00+9ююв3472100 0.0 102297
09:00+11ююв356589 0.0 1022272
12:00+15ю234364 0.0 10202057
15:00+15вюв2348100 0.0 1019904
18:00+13юв4965100 0.0 1018310
21:00+11ююв51074100 0.0 1018312